This is the latest recevied weather packets stored in our database for station/object KE8ZLU. If no packets are shown the sender has not sent any weather packets the latest 10 day(s).
| Time | Temp. | Humidity | Pressure | Rain* | Wind** | Luminosity | Snow |
|---|---|---|---|---|---|---|---|
| 1777815639 | 10° C | 54% | 1015.1 hPa | 0 mm | - | 133 W/m² | - |
| 1777815336 | 10° C | 55% | 1015 hPa | 0 mm | - | 119 W/m² | - |
| 1777815032 | 10° C | 53% | 1015 hPa | 0 mm | - | 155 W/m² | - |
| 1777814723 | 10° C | 53% | 1015.2 hPa | 0 mm | - | 210 W/m² | - |
| 1777814420 | 10° C | 55% | 1015 hPa | 0 mm | - | 194 W/m² | - |
| 1777814117 | 10.56° C | 54% | 1015 hPa | 0 mm | - | 224 W/m² | - |
| 1777813814 | 10.56° C | 53% | 1015.2 hPa | 0 mm | - | 255 W/m² | - |
| 1777813511 | 9.44° C | 55% | 1015.1 hPa | 0 mm | - | 265 W/m² | - |
| 1777813209 | 9.44° C | 55% | 1015 hPa | 0 mm | - | 265 W/m² | - |
| 1777812906 | 9.44° C | 54% | 1015 hPa | 0 mm | - | 250 W/m² | - |
| 1777812603 | 8.89° C | 57% | 1015 hPa | 0 mm | - | 215 W/m² | - |
| 1777812300 | 8.89° C | 58% | 1015.1 hPa | 0 mm | - | 135 W/m² | - |
| 1777811998 | 8.89° C | 59% | 1015.1 hPa | 0 mm | - | 196 W/m² | - |
| 1777811697 | 8.33° C | 59% | 1015 hPa | 0 mm | - | 186 W/m² | - |
| 1777811392 | 7.78° C | 60% | 1015.1 hPa | 0 mm | - | 179 W/m² | - |
| 1777811089 | 7.78° C | 60% | 1015.1 hPa | 0 mm | - | 146 W/m² | - |
| 1777810786 | 7.78° C | 62% | 1015.1 hPa | 0 mm | - | 152 W/m² | - |
| 1777810483 | 7.22° C | 62% | 1014.9 hPa | 0 mm | - | 124 W/m² | - |
| 1777810179 | 6.67° C | 62% | 1015.1 hPa | 0 mm | - | 124 W/m² | - |
| 1777809876 | 6.67° C | 64% | 1014.9 hPa | 0 mm | - | 94 W/m² | - |
| 1777809573 | 6.67° C | 64% | 1015.1 hPa | 0 mm | - | 114 W/m² | - |
| 1777809266 | 6.11° C | 65% | 1014.9 hPa | 0 mm | - | 102 W/m² | - |
| 1777808963 | 6.11° C | 66% | 1014.8 hPa | 0 mm | - | 77 W/m² | - |
| 1777808660 | 6.11° C | 65% | 1015 hPa | 0 mm | - | 74 W/m² | - |
| 1777808357 | 5.56° C | 65% | 1014.9 hPa | 0 mm | - | 67 W/m² | - |
* Rain latest hour (hover to see other rain measurements)
** Current wind speed in m/s (hover to see current wind gust speed)